{"data":{"norad_id":60480,"intl_designator":"2024-149N","name":"FLOCK 4BE-18","alt_names":[],"object_type":"PAYLOAD","status":"ACTIVE","operator":null,"country":"US","launch_date":"2024-08-16","launch_site_code":"AFWTR","launch_vehicle":null,"mission":null,"orbit_class":"UNKNOWN","rcs_meters":null,"size_class":null,"mass_kg":null,"dimensions":null,"purposes":["earth_obs"],"wikipedia_slug":null,"has_3d_model":false,"image_url":null,"decayed_at":null,"tle_current":{"epoch":"2026-09-19T05:22:51.830400Z","epoch_age_seconds":124708,"freshness":"FRESH","line1":"1 60480U 24149N   26262.22421100  .00028334  00000+0  59726-3 0  9999","line2":"2 60480  97.3669 347.1090 0002473 262.7746  97.3222 15.45206736116815","mean_motion":15.45206736,"eccentricity":0.0002473,"inclination_deg":97.3669,"raan_deg":347.109,"arg_perigee_deg":262.7746,"mean_anomaly_deg":97.3222,"bstar":0.00059726,"rev_number":11681,"period_min":93.191413579238,"perigee_km":429.08684418052,"apogee_km":432.45452992254,"semimajor_km":6808.9076870515,"source":"CELESTRAK","updated_at":"2026-09-20T09:00:34.711405Z"}}}